This is the latest recevied weather packets stored in our database for station/object IR3AS. If no packets are shown the sender has not sent any weather packets the latest 10 day(s).
| Time | Temp. | Humidity | Pressure | Rain* | Wind** | Luminosity | Snow |
|---|---|---|---|---|---|---|---|
| 1777575064 | 0° C | 82% | 859.6 hPa | 0 mm | - | - | - |
| 1777574764 | 0.56° C | 82% | 859.9 hPa | 0 mm | - | - | - |
| 1777574464 | 0.56° C | 82% | 859.8 hPa | 0 mm | - | - | - |
| 1777574164 | 0.56° C | 81% | 859.8 hPa | 0 mm | - | - | - |
| 1777573864 | 0.56° C | 81% | 860 hPa | 0 mm | - | - | - |
| 1777573564 | 1.11° C | 81% | 859.9 hPa | 0 mm | - | - | - |
| 1777573264 | 1.11° C | 80% | 860 hPa | 0 mm | - | - | - |
| 1777572964 | 1.67° C | 79% | 859.9 hPa | 0 mm | - | - | - |
| 1777572664 | 1.67° C | 79% | 860.2 hPa | 0 mm | - | - | - |
| 1777572364 | 2.22° C | 79% | 860.2 hPa | 0 mm | - | - | - |
| 1777572064 | 2.78° C | 79% | 860.2 hPa | 0 mm | - | - | - |
| 1777571764 | 2.78° C | 78% | 860.3 hPa | 0 mm | - | - | - |
| 1777571464 | 2.78° C | 78% | 860.6 hPa | 0 mm | - | - | - |
| 1777571220 | 2.78° C | 79% | 860.5 hPa | 0 mm | - | - | - |
| 1777571164 | 2.78° C | 79% | 860.5 hPa | 0 mm | - | - | - |
| 1777570864 | 2.78° C | 78% | 860.8 hPa | 0 mm | - | - | - |
| 1777570564 | 3.33° C | 78% | 860.6 hPa | 0 mm | - | - | - |
| 1777570264 | 3.33° C | 78% | 860.8 hPa | 0 mm | - | - | - |
| 1777569964 | 3.33° C | 79% | 861 hPa | 0 mm | - | - | - |
| 1777569664 | 2.78° C | 79% | 860.8 hPa | 0 mm | - | - | - |
| 1777569364 | 2.78° C | 78% | 860.8 hPa | 0 mm | - | - | - |
| 1777569064 | 3.33° C | 77% | 860.5 hPa | 0 mm | - | - | - |
| 1777568764 | 3.33° C | 76% | 860.8 hPa | 0 mm | - | - | - |
| 1777568464 | 3.89° C | 73% | 860.7 hPa | 0 mm | - | - | - |
| 1777568164 | 4.44° C | 72% | 860.7 hPa | 0 mm | - | - | - |
* Rain latest hour (hover to see other rain measurements)
** Current wind speed in m/s (hover to see current wind gust speed)